Regional Weather Roundup
Issued by NWS Sioux Falls, SD

Home | Current Version | Previous Version | Graphics & Text | Print | Product List | Glossary Off
Versions: 1 2 3 4 5 6 7 8 9 10 11 12 13 14 15 16 17 18 19 20 21 22 23 24 25 26 27 28 29 30 31 32 33 34 35 36 37 38 39 40 41 42 43 44 45 46 47 48 49 50

000
ASUS43 KFSD 071602
RWRFSD

WEATHER ROUNDUP FOR SE SOUTH DAKOTA/SW MINNESOTA/NW IOWA
NATIONAL WEATHER SERVICE SIOUX FALLS SD
1100 AM CDT TUE JUL 07 2015

NOTE: "FAIR" INDICATES FEW OR NO CLOUDS BELOW 12,000 FEET WITH NO
SIGNIFICANT WEATHER AND OR OBSTRUCTIONS TO VISIBILITY.


SDZ038>040-050-052>070-071700-
SOUTHEAST SOUTH DAKOTA

CITY           SKY/WX    TMP DP  RH WIND       PRES   REMARKS
BROOKINGS      SUNNY     59  45  58 NE10G16   30.23S
CHAMBERLAIN    SUNNY     64  53  68 SE10      30.20F
HURON          SUNNY     63  48  58 E5        30.21S
MADISON        FAIR      59  46  63 E8        30.22S
MITCHELL       SUNNY     65  50  58 E8        30.22S
SIOUX FALLS    MOSUNNY   62  49  62 NE13G21   30.21F
WINNER         FAIR      70  56  61 SE14      30.19F HAZE
YANKTON        PTSUNNY   63  48  59 E9        30.20F
$$

MNZ071-072-080-081-089-090-097-098-071700-
SOUTHWEST MINNESOTA

CITY           SKY/WX    TMP DP  RH WIND       PRES   REMARKS
FAIRMONT       PTSUNNY   61  45  55 N10       30.18S
JACKSON        SUNNY     61  46  59 N12       30.19F
MARSHALL       SUNNY     63  43  48 E13       30.20S
MONTEVIDEO     SUNNY     66  48  52 NE9         N/A
PIPESTONE      MOSUNNY   61  46  59 E7        30.21S
REDWOOD FALLS  MOSUNNY   64  44  48 N12G18    30.19F
TRACY          MOSUNNY   62  48  60 NE9G18    30.21S
WINDOM         SUNNY     61  45  55 N12G20    30.20S
WORTHINGTON    MOSUNNY   61  46  59 NE13      30.20F
$$

IAZ001>003-012>014-020>022-031-032-NEZ013-014-SDZ071-071700-
NORTHWEST IOWA

CITY           SKY/WX    TMP DP  RH WIND       PRES   REMARKS
DENISON        SUNNY     63  50  63 NE13      30.15S
ESTHERVILLE    MOSUNNY   60  46  59 N10       30.18S
SIOUX CITY     SUNNY     65  46  50 N10       30.19F
SPENCER        PTSUNNY   64  45  49 N15       30.19S
$$

ABBREVIATIONS USED IN REMARKS
   TC - TEMPERATURE IN CELSIUS
  WCI - WIND CHILL INDEX
   HX - HEAT INDEX
  VSB - VISIBILITY



USA.gov is the U.S. government's official web portal to all federal, state and local government web resources and services.